Carbondale, IL

1:49 PM CDT on June 23, 2017 (GMT -0500)
Southern Illinois

Weather History for KMDH - May, 2014

Change the Weather History Date:

Friday, May 16, 2014

  Actual Average Record
Temperature  
Mean Temperature 50 °F -  
Max Temperature 60 °F 76 °F 93 °F (1911)
Min Temperature 42 °F 52 °F 36 °F (1959)
Degree Days  
Heating Degree Days 14    
Moisture  
Dew Point 40 °F    
Average Humidity 71    
Maximum Humidity 96    
Minimum Humidity 40    
Precipitation  
Precipitation 0.00 in - - ()
Sea Level Pressure  
Sea Level Pressure 30.08 in    
Wind  
Wind Speed 6 mph (WNW)    
Max Wind Speed 14 mph    
Max Gust Speed 22 mph    
Visibility 10 miles    
Events      
Averages and records for this station are not official NWS values.
T = Trace of Precipitation, MM = Missing Value Source: NWS Daily Summary

Daily Weather History Graph

Daily Weather History Graph

Search for Another Location

Airport or City:

Trip Planner

Search our weather history database for the weather conditions in past years. The results will help you decide how hot, cold, wet, or windy it might be!

Date:

Astronomy

May. 16, 2014 Rise Set
Actual Time 5:46 AM CDT 8:00 PM CDT
Civil Twilight 5:16 AM CDT 8:30 PM CDT
Nautical Twilight 4:40 AM CDT 9:06 PM CDT
Astronomical Twilight 4:01 AM CDT 9:46 PM CDT
Moon 10:07 PM CDT (5/16) 7:28 AM CDT (5/16)
Length of Visible Light 15h 13m
Length of Day
14h 14m
Waning Gibbous, 95% of the Moon is Illuminated
May 16
Waning Gibbous
May 21
Last Quarter
May 28
New
Jun 5
First Quarter
Jun 12
Full

Hourly Weather History & Observations

Time (CDT) Temp. Windchill Dew Point Humidity Pressure Visibility Wind Dir Wind Speed Gust Speed Precip Events Conditions
12:39 AM 48.9 °F - 46.9 °F 93% 30.08 in 8.0 mi WNW 4.6 mph - N/A   Mostly Cloudy
1:01 AM 48.9 °F - 46.9 °F 93% 30.07 in 10.0 mi WNW 3.5 mph - N/A   Mostly Cloudy
1:52 AM 46.0 °F 43.9 °F 45.0 °F 96% 30.05 in 5.0 mi WSW 4.6 mph - N/A   Clear
2:52 AM 45.0 °F 42.6 °F 43.0 °F 93% 30.04 in 7.0 mi WSW 4.6 mph - N/A   Clear
3:52 AM 45.0 °F 41.2 °F 43.0 °F 93% 30.04 in 9.0 mi West 6.9 mph - N/A   Clear
4:52 AM 43.0 °F 39.5 °F 41.0 °F 93% 30.05 in 10.0 mi WSW 5.8 mph - N/A   Clear
5:52 AM 42.1 °F 40.2 °F 39.9 °F 92% 30.06 in 10.0 mi West 3.5 mph - N/A   Clear
6:52 AM 44.1 °F 40.1 °F 39.9 °F 85% 30.08 in 10.0 mi West 6.9 mph - N/A   Clear
7:52 AM 46.0 °F 41.4 °F 39.9 °F 79% 30.09 in 10.0 mi WNW 9.2 mph - N/A   Clear
8:52 AM 48.0 °F - 42.1 °F 80% 30.10 in 10.0 mi West 9.2 mph - N/A   Partly Cloudy
9:18 AM 48.9 °F - 41.0 °F 74% 30.10 in 10.0 mi West 10.4 mph - N/A   Mostly Cloudy
9:32 AM 50.0 °F - 39.9 °F 68% 30.10 in 10.0 mi NW 10.4 mph - N/A   Scattered Clouds
9:52 AM 50.0 °F - 39.9 °F 68% 30.09 in 10.0 mi WNW 8.1 mph - N/A   Mostly Cloudy
10:02 AM 50.0 °F - 39.9 °F 68% 30.09 in 10.0 mi WNW 10.4 mph - N/A   Mostly Cloudy
10:52 AM 53.1 °F - 39.9 °F 61% 30.09 in 10.0 mi WNW 13.8 mph 18.4 mph N/A   Mostly Cloudy
10:59 AM 53.1 °F - 37.0 °F 55% 30.09 in 10.0 mi WNW 11.5 mph 21.9 mph N/A   Scattered Clouds
11:52 AM 55.0 °F - 37.0 °F 51% 30.09 in 10.0 mi WNW 9.2 mph 17.3 mph N/A   Mostly Cloudy
12:52 PM 55.9 °F - 35.1 °F 45% 30.09 in 10.0 mi WNW 13.8 mph 21.9 mph N/A   Partly Cloudy
1:52 PM 55.9 °F - 35.1 °F 45% 30.08 in 10.0 mi West 8.1 mph - N/A   Mostly Cloudy
4:52 PM 57.0 °F - 33.1 °F 40% 30.08 in 10.0 mi NW 11.5 mph - N/A   Mostly Cloudy
5:52 PM 59.0 °F - 35.1 °F 41% 30.07 in 10.0 mi NNW 6.9 mph - N/A   Mostly Cloudy
6:52 PM 57.0 °F - 35.1 °F 44% 30.08 in 10.0 mi NW 6.9 mph - N/A   Clear
7:52 PM 53.1 °F - 37.9 °F 57% 30.09 in 10.0 mi Calm Calm - N/A   Clear
8:52 PM 48.9 °F - 43.0 °F 80% 30.10 in 10.0 mi Calm Calm - N/A   Clear
10:52 PM 48.0 °F - 39.9 °F 74% 30.14 in 10.0 mi North 5.8 mph - N/A   Mostly Cloudy
11:52 PM 48.0 °F - 41.0 °F 77% 30.15 in 10.0 mi Calm Calm - N/A   Overcast